Dumas, TX

12:09 AM CDT on July 22, 2017 (GMT -0500)
Moore County

Weather History for KDUX - August, 2013

Change the Weather History Date:

Tuesday, August 20, 2013

  Actual Average (KDHT) Record (KDHT)
Temperature  
Mean Temperature 77 °F -  
Max Temperature 91 °F 87 °F 106 °F (2007)
Min Temperature 63 °F 60 °F 51 °F (1950)
Cooling Degree Days 12    
Growing Degree Days 27 (Base 50)    
Moisture  
Dew Point 60 °F    
Average Humidity 58    
Maximum Humidity 87    
Minimum Humidity 33    
Precipitation  
Precipitation 0.00 in - - ()
Sea Level Pressure  
Sea Level Pressure 30.06 in    
Wind  
Wind Speed 10 mph (SSE)    
Max Wind Speed 16 mph    
Max Gust Speed 23 mph    
Visibility 10 miles    
Events      
Averages and records for this station are not official NWS values.
T = Trace of Precipitation, MM = Missing Value Source: NWS Daily Summary

Daily Weather History Graph

Daily Weather History Graph

Search for Another Location

Airport or City:

Trip Planner

Search our weather history database for the weather conditions in past years. The results will help you decide how hot, cold, wet, or windy it might be!

Date:

Astronomy

Aug. 20, 2013 Rise Set
Actual Time 7:10 AM CDT 8:31 PM CDT
Civil Twilight 6:44 AM CDT 8:57 PM CDT
Nautical Twilight 6:11 AM CDT 9:29 PM CDT
Astronomical Twilight 5:38 AM CDT 10:03 PM CDT
Moon 8:06 PM CDT (8/20) 6:42 AM CDT (8/20)
Length of Visible Light 14h 13m
Length of Day
13h 20m
Full, 100% of the Moon is Illuminated
Aug 20
Full
Aug 20
Full
Aug 28
Last Quarter
Sep 5
New
Sep 12
First Quarter

Hourly Weather History & Observations

Time (CDT) Temp. Heat Index Dew Point Humidity Pressure Visibility Wind Dir Wind Speed Gust Speed Precip Events Conditions
12:15 AM 70.0 °F - 60.8 °F 73% 30.10 in 10.0 mi South 9.2 mph - N/A   Clear
12:35 AM 71.8 °F - 60.8 °F 68% 30.09 in 10.0 mi SSE 10.4 mph - N/A   Clear
12:55 AM 72.5 °F - 60.8 °F 67% 30.09 in 10.0 mi South 9.2 mph - N/A   Clear
1:15 AM 70.7 °F - 60.8 °F 71% 30.09 in 10.0 mi South 8.1 mph - N/A   Clear
1:35 AM 70.9 °F - 60.4 °F 69% 30.08 in 10.0 mi SSE 9.2 mph - N/A   Clear
1:55 AM 70.7 °F - 60.3 °F 69% 30.08 in 10.0 mi South 9.2 mph - N/A   Clear
2:15 AM 70.2 °F - 60.1 °F 70% 30.07 in 10.0 mi South 9.2 mph - N/A   Clear
2:35 AM 68.2 °F - 60.4 °F 76% 30.07 in 10.0 mi SSE 6.9 mph - N/A   Clear
2:55 AM 67.3 °F - 60.4 °F 79% 30.07 in 10.0 mi SSE 8.1 mph - N/A   Clear
3:15 AM 66.0 °F - 60.3 °F 82% 30.07 in 10.0 mi South 8.1 mph - N/A   Clear
3:35 AM 64.9 °F - 60.3 °F 85% 30.07 in 10.0 mi SSE 6.9 mph - N/A   Clear
3:55 AM 65.3 °F - 60.3 °F 84% 30.07 in 10.0 mi SSE 6.9 mph - N/A   Clear
4:15 AM 64.4 °F - 60.1 °F 86% 30.07 in 10.0 mi SSE 5.8 mph - N/A   Clear
4:35 AM 63.9 °F - 60.1 °F 87% 30.07 in 10.0 mi SE 6.9 mph - N/A   Clear
4:55 AM 64.4 °F - 60.3 °F 86% 30.06 in 10.0 mi SE 8.1 mph - N/A   Clear
5:15 AM 64.6 °F - 60.1 °F 85% 30.06 in 10.0 mi SE 9.2 mph - N/A   Clear
5:35 AM 64.4 °F - 59.9 °F 85% 30.06 in 10.0 mi SE 9.2 mph - N/A   Clear
5:55 AM 64.4 °F - 59.5 °F 84% 30.06 in 10.0 mi SE 10.4 mph - N/A   Clear
6:15 AM 64.6 °F - 59.4 °F 83% 30.06 in 10.0 mi SE 10.4 mph - N/A   Clear
6:35 AM 64.4 °F - 59.2 °F 83% 30.06 in 10.0 mi SE 10.4 mph - N/A   Clear
6:55 AM 63.5 °F - 59.0 °F 85% 30.06 in 10.0 mi SE 8.1 mph - N/A   Clear
7:15 AM 63.0 °F - 59.0 °F 87% 30.06 in 10.0 mi SE 8.1 mph - N/A   Clear
7:35 AM 63.5 °F - 59.0 °F 85% 30.07 in 10.0 mi SE 9.2 mph - N/A   Clear
7:55 AM 64.2 °F - 59.0 °F 83% 30.07 in 10.0 mi SE 8.1 mph - N/A   Clear
8:15 AM 65.3 °F - 59.4 °F 81% 30.07 in 10.0 mi SSE 8.1 mph - N/A   Clear
8:35 AM 67.1 °F - 59.9 °F 78% 30.07 in 10.0 mi SSE 8.1 mph - N/A   Clear
8:55 AM 68.9 °F - 59.9 °F 73% 30.08 in 10.0 mi SSE 9.2 mph - N/A   Clear
9:15 AM 70.3 °F - 60.1 °F 70% 30.08 in 10.0 mi SSE 11.5 mph - N/A   Clear
9:35 AM 72.1 °F - 59.9 °F 65% 30.08 in 10.0 mi SSE 10.4 mph - N/A   Clear
9:55 AM 73.9 °F - 60.8 °F 63% 30.09 in 10.0 mi SSW 9.2 mph - N/A   Clear
10:15 AM 74.3 °F - 60.3 °F 61% 30.08 in 10.0 mi South 6.9 mph - N/A   Clear
10:35 AM 75.9 °F - 60.8 °F 59% 30.09 in 10.0 mi SE 8.1 mph - N/A   Clear
10:55 AM 77.4 °F - 61.5 °F 58% 30.09 in 10.0 mi SSE 6.9 mph - N/A   Clear
11:15 AM 77.9 °F - 61.5 °F 57% 30.09 in 10.0 mi SSE 8.1 mph - N/A   Clear
11:35 AM 79.2 °F - 61.9 °F 55% 30.09 in 10.0 mi SE 8.1 mph - N/A   Clear
11:55 AM 80.6 °F 81.6 °F 61.7 °F 52% 30.09 in 10.0 mi SE 8.1 mph - N/A   Clear
12:15 PM 81.5 °F 82.4 °F 61.7 °F 51% 30.08 in 10.0 mi SE 8.1 mph - N/A   Clear
12:35 PM 82.6 °F 83.2 °F 61.9 °F 49% 30.08 in 10.0 mi ESE 11.5 mph - N/A   Clear
12:55 PM 83.1 °F 83.7 °F 61.7 °F 48% 30.08 in 10.0 mi SE 9.2 mph - N/A   Clear
1:15 PM 84.2 °F 84.8 °F 62.1 °F 47% 30.08 in 10.0 mi SSE 9.2 mph - N/A   Clear
1:35 PM 85.5 °F 86.1 °F 62.4 °F 46% 30.07 in 10.0 mi SSE 8.1 mph - N/A   Clear
1:55 PM 86.0 °F 86.1 °F 61.3 °F 43% 30.07 in 10.0 mi SE 11.5 mph - N/A   Clear
2:15 PM 86.7 °F 86.8 °F 61.0 °F 42% 30.06 in 10.0 mi SSE 9.2 mph 16.1 mph N/A   Clear
2:35 PM 87.3 °F 87.0 °F 60.3 °F 40% 30.06 in 10.0 mi ESE 11.5 mph 20.7 mph N/A   Clear
2:55 PM 88.9 °F 88.8 °F 60.6 °F 39% 30.06 in 10.0 mi SE 10.4 mph - N/A   Clear
3:15 PM 89.1 °F 88.5 °F 59.7 °F 37% 30.05 in 10.0 mi SE 9.2 mph 17.3 mph N/A   Clear
3:35 PM 89.2 °F 88.7 °F 59.9 °F 37% 30.04 in 10.0 mi SE 12.7 mph 18.4 mph N/A   Clear
3:55 PM 90.0 °F 90.0 °F 61.0 °F 38% 30.03 in 10.0 mi SSE 13.8 mph 18.4 mph N/A   Clear
4:15 PM 90.0 °F 89.7 °F 60.8 °F 37% 30.03 in 10.0 mi SSE 12.7 mph 17.3 mph N/A   Clear
4:35 PM 90.3 °F 90.2 °F 60.6 °F 37% 30.02 in 10.0 mi SE 12.7 mph 23.0 mph N/A   Clear
4:55 PM 90.9 °F 90.9 °F 61.2 °F 37% 30.02 in 10.0 mi SE 11.5 mph 16.1 mph N/A   Clear
5:15 PM 91.6 °F 91.6 °F 61.0 °F 36% 30.01 in 10.0 mi SE 12.7 mph 16.1 mph N/A   Clear
5:35 PM 91.2 °F 90.2 °F 58.5 °F 33% 30.01 in 10.0 mi SE 12.7 mph 17.3 mph N/A   Clear
5:55 PM 91.0 °F 90.2 °F 59.2 °F 34% 30.01 in 10.0 mi SSE 11.5 mph 19.6 mph N/A   Clear
6:15 PM 90.5 °F 89.8 °F 59.0 °F 35% 30.01 in 10.0 mi SSE 15.0 mph 18.4 mph N/A   Clear
6:35 PM 89.8 °F 88.9 °F 58.5 °F 35% 30.01 in 10.0 mi SSE 13.8 mph - N/A   Clear
6:55 PM 89.1 °F 88.0 °F 58.1 °F 35% 30.01 in 10.0 mi SSE 15.0 mph 20.7 mph N/A   Clear
7:15 PM 88.0 °F 86.9 °F 57.7 °F 36% 30.01 in 10.0 mi SSE 15.0 mph 21.9 mph N/A   Clear
7:35 PM 87.1 °F 85.9 °F 57.2 °F 36% 30.01 in 10.0 mi SE 16.1 mph 19.6 mph N/A   Clear
7:55 PM 85.8 °F 84.7 °F 56.5 °F 37% 30.02 in 10.0 mi SSE 15.0 mph 21.9 mph N/A   Clear
8:15 PM 84.6 °F 83.5 °F 56.5 °F 38% 30.02 in 10.0 mi SSE 15.0 mph 19.6 mph N/A   Clear
8:35 PM 83.3 °F 82.6 °F 56.3 °F 40% 30.02 in 10.0 mi SSE 12.7 mph - N/A   Clear
8:55 PM 81.9 °F 81.4 °F 56.3 °F 41% 30.03 in 10.0 mi SSE 11.5 mph - N/A   Clear
9:15 PM 81.3 °F 81.1 °F 56.3 °F 42% 30.04 in 10.0 mi SSE 11.5 mph - N/A   Clear
9:35 PM 80.6 °F 80.7 °F 56.7 °F 44% 30.05 in 10.0 mi South 11.5 mph - N/A   Clear
9:55 PM 80.2 °F 80.4 °F 56.7 °F 44% 30.06 in 10.0 mi South 12.7 mph - N/A   Clear
10:15 PM 79.3 °F - 56.5 °F 45% 30.07 in 10.0 mi South 11.5 mph - N/A   Clear
10:35 PM 78.4 °F - 56.7 °F 47% 30.07 in 10.0 mi South 10.4 mph - N/A   Clear
10:55 PM 77.4 °F - 56.8 °F 49% 30.08 in 10.0 mi South 11.5 mph - N/A   Clear
11:15 PM 76.3 °F - 57.0 °F 51% 30.08 in 10.0 mi South 9.2 mph - N/A   Clear
11:35 PM 75.7 °F - 57.0 °F 52% 30.09 in 10.0 mi South 9.2 mph - N/A   Clear
11:55 PM 74.7 °F - 57.2 °F 54% 30.08 in 10.0 mi South 10.4 mph - N/A   Clear